Last 24 Hours

Coyote Canyon

10 Minute Data | America/Los_Angeles
as of 5/4/26 6:02 AM PDT
Date & Time Temp (°F) Dew Pt (°F) RH (%) Wind Spd (mph) Wind Dir (°) Wind Gust (mph) Wind Gst Dir (°) Daily Max Temp (°F) Daily Min Temp (°F)
5/4/26 - 0600 42.6 41.5 96 21.7 W | 279 29.7 W | 278 43.8 42.6
5/4/26 - 0550 42.6 41.6 96 19.2 WNW | 286 27.0 WNW | 291 43.8 42.6
5/4/26 - 0540 42.8 41.6 96 21.0 WNW | 282 28.1 WNW | 288 43.8 42.6
5/4/26 - 0530 42.9 41.7 96 20.6 WNW | 283 29.3 W | 271 43.8 42.8
5/4/26 - 0520 42.9 41.7 96 21.2 WNW | 282 29.2 WNW | 292 43.8 42.8
5/4/26 - 0510 42.9 41.4 95 22.9 W | 281 30.2 W | 273 43.8 42.8
5/4/26 - 0500 42.9 41.3 94 21.3 WNW | 284 30.2 WNW | 283 43.8 42.8
5/4/26 - 0450 42.9 41.2 94 20.9 WNW | 285 30.9 WNW | 282 43.8 42.8
5/4/26 - 0440 43.1 41.6 95 23.2 WNW | 287 30.5 W | 281 43.8 42.9
5/4/26 - 0430 43.1 41.6 94 21.5 WNW | 288 28.6 WNW | 288 43.8 42.9
5/4/26 - 0420 43.0 41.5 94 21.2 WNW | 294 27.2 WNW | 285 43.8 42.9
5/4/26 - 0410 43.0 41.5 94 20.4 WNW | 290 27.0 W | 281 43.8 42.9
5/4/26 - 0400 43.2 41.4 93 21.2 WNW | 289 28.1 WNW | 284 43.8 43.0
5/4/26 - 0350 43.2 41.2 93 21.6 WNW | 288 29.3 WNW | 284 43.8 43.0
5/4/26 - 0340 43.1 40.9 92 23.3 WNW | 289 31.9 WNW | 286 43.8 43.0
5/4/26 - 0330 43.1 40.5 91 24.6 WNW | 290 32.6 WNW | 298 43.8 43.0
5/4/26 - 0320 43.2 40.5 90 21.5 WNW | 286 30.2 W | 277 43.8 43.0
5/4/26 - 0310 43.2 40.2 89 20.3 WNW | 288 26.9 WNW | 290 43.8 43.0
5/4/26 - 0300 43.2 40.2 89 20.8 WNW | 288 26.7 WNW | 289 43.8 43.0
5/4/26 - 0250 43.3 40.7 90 22.0 WNW | 291 28.7 WNW | 289 43.8 43.0
5/4/26 - 0240 43.3 41.1 92 22.6 WNW | 296 29.2 WNW | 293 43.8 43.0
5/4/26 - 0230 43.2 41.4 93 21.6 WNW | 290 28.4 WNW | 289 43.8 43.0
5/4/26 - 0220 43.0 41.2 93 25.5 WNW | 292 35.1 WNW | 299 43.8 43.0
5/4/26 - 0210 43.1 41.5 94 24.6 WNW | 290 35.2 NW | 306 43.8 43.0
5/4/26 - 0200 43.3 41.4 93 25.9 WNW | 290 34.6 WNW | 286 43.8 43.2
5/4/26 - 0150 43.6 41.5 92 22.9 WNW | 292 32.5 WNW | 285 43.8 43.3
5/4/26 - 0140 43.7 40.2 87 18.3 WNW | 295 25.1 WNW | 295 43.8 43.3
5/4/26 - 0130 43.7 40.2 88 16.4 WNW | 296 27.1 WNW | 293 43.8 43.3
5/4/26 - 0120 43.5 41.7 93 16.7 WNW | 300 25.3 NW | 305 43.7 43.3
5/4/26 - 0110 43.6 41.6 93 17.4 WNW | 302 24.6 WNW | 295 43.7 43.5
5/4/26 - 0100 43.7 41.3 91 21.3 WNW | 295 30.0 WNW | 292 70.3 43.3
5/4/26 - 0050 44.0 40.3 87 19.9 WNW | 291 28.1 WNW | 298 70.3 43.3
5/4/26 - 0040 44.1 40.2 86 17.8 WNW | 283 25.6 WNW | 290 70.3 43.3
5/4/26 - 0030 44.2 40.1 85 20.8 WNW | 284 31.2 W | 264 70.3 43.3
5/4/26 - 0020 44.1 39.5 84 22.4 WNW | 286 29.4 WNW | 286 70.3 43.3
5/4/26 - 0010 44.0 40.0 86 21.0 WNW | 290 28.6 WNW | 284 70.3 43.3
5/4/26 - 0000 43.9 41.1 90 21.1 WNW | 287 30.0 WNW | 291 70.3 43.3
5/3/26 - 2350 43.8 41.4 91 23.5 WNW | 285 33.8 WNW | 288 70.3 43.3
5/3/26 - 2340 43.8 41.8 93 24.7 WNW | 284 33.4 WNW | 284 70.3 43.3
5/3/26 - 2330 43.7 41.9 93 22.0 WNW | 286 30.2 WNW | 287 70.3 43.3
5/3/26 - 2320 43.7 41.9 93 22.8 WNW | 290 29.9 WNW | 282 70.3 43.3
5/3/26 - 2310 43.8 41.9 93 22.2 WNW | 285 30.2 WNW | 286 70.3 43.3
5/3/26 - 2300 43.7 42.2 94 18.8 WNW | 285 28.6 W | 278 70.3 43.3
5/3/26 - 2250 43.6 42.4 95 18.4 WNW | 287 26.3 WNW | 295 70.3 43.3
5/3/26 - 2240 43.6 42.6 96 20.7 WNW | 286 30.8 W | 274 70.3 43.3
5/3/26 - 2230 43.5 42.7 97 22.8 WNW | 288 30.3 WNW | 289 70.3 43.3
5/3/26 - 2220 43.4 42.7 97 20.3 WNW | 290 29.7 WNW | 283 70.3 43.3
5/3/26 - 2210 43.5 42.8 98 20.5 WNW | 290 28.5 WNW | 289 70.3 43.5
5/3/26 - 2200 43.6 42.9 97 21.0 WNW | 291 28.0 WNW | 286 70.3 43.6
5/3/26 - 2150 43.8 43.0 97 20.4 WNW | 292 28.1 WNW | 288 70.3 43.7
5/3/26 - 2140 44.1 43.3 97 18.2 WNW | 286 26.4 W | 279 70.3 44.0
5/3/26 - 2130 44.2 43.3 97 18.0 WNW | 284 25.2 WNW | 282 70.3 44.2
5/3/26 - 2120 44.5 43.6 96 16.5 W | 277 23.5 W | 269 70.3 44.4
5/3/26 - 2110 44.7 43.5 96 17.7 WNW | 282 25.6 W | 279 70.3 44.5
5/3/26 - 2100 44.8 43.5 95 18.4 WNW | 282 24.8 WNW | 285 70.3 44.8
5/3/26 - 2050 45.0 43.2 93 17.1 WNW | 285 24.6 W | 279 70.3 44.9
5/3/26 - 2040 45.0 43.4 94 18.4 WNW | 282 26.7 WNW | 285 70.3 45.0
5/3/26 - 2030 45.3 43.6 94 18.0 WNW | 285 26.3 WNW | 290 70.3 45.1
5/3/26 - 2020 45.5 43.8 94 18.8 WNW | 287 24.6 WNW | 291 70.3 45.4
5/3/26 - 2010 45.6 43.8 93 19.4 WNW | 291 28.1 WNW | 303 70.3 45.6
5/3/26 - 2000 45.9 43.9 92 23.0 WNW | 289 32.4 WNW | 288 70.3 45.7
5/3/26 - 1950 46.4 43.9 91 24.0 W | 280 31.7 W | 280 70.3 46.2
5/3/26 - 1940 47.0 44.2 90 22.4 WNW | 285 29.4 WNW | 285 70.3 46.8
5/3/26 - 1930 47.7 44.6 89 22.0 WNW | 284 32.8 W | 278 70.3 47.4
5/3/26 - 1920 48.3 44.9 88 22.4 WNW | 285 32.7 WNW | 282 70.3 47.9
5/3/26 - 1910 49.6 45.2 85 19.9 WNW | 288 30.4 WNW | 286 70.3 48.9
5/3/26 - 1900 50.3 45.7 84 19.6 WNW | 286 28.2 W | 276 70.3 50.1
5/3/26 - 1850 50.9 45.9 83 22.4 W | 281 32.7 WNW | 285 70.3 50.3
5/3/26 - 1840 52.2 46.5 81 24.6 W | 273 32.4 W | 263 70.3 51.4
5/3/26 - 1830 53.4 46.9 78 23.7 W | 272 32.5 W | 273 70.3 52.1
5/3/26 - 1820 54.4 47.0 76 22.7 W | 270 29.5 W | 271 70.3 52.1
5/3/26 - 1810 55.1 47.3 75 23.5 W | 272 31.6 W | 262 70.3 52.1
5/3/26 - 1800 55.8 47.6 74 21.6 W | 276 30.2 W | 280 70.3 52.1
5/3/26 - 1750 57.0 47.8 71 22.5 WNW | 287 30.0 W | 275 70.3 52.1
5/3/26 - 1740 58.0 48.1 69 21.6 WNW | 292 28.9 WNW | 292 70.3 52.1
5/3/26 - 1730 57.8 48.2 70 21.1 WNW | 293 28.2 WNW | 283 70.3 52.1
5/3/26 - 1720 58.1 48.3 70 17.3 WNW | 283 23.9 WNW | 284 70.3 52.1
5/3/26 - 1710 58.2 48.0 69 15.8 W | 280 23.6 WNW | 286 70.3 52.1
5/3/26 - 1700 57.7 48.4 71 16.7 W | 279 23.0 WNW | 290 70.3 52.1
5/3/26 - 1650 58.0 48.2 70 17.2 W | 275 22.2 WNW | 282 70.3 52.1
5/3/26 - 1640 58.5 48.0 68 16.8 W | 272 24.1 W | 270 70.3 52.1
5/3/26 - 1630 57.2 48.1 72 18.0 W | 279 24.8 WNW | 292 70.3 52.1
5/3/26 - 1620 57.0 48.4 73 19.2 W | 274 27.6 W | 279 70.3 52.1
5/3/26 - 1610 56.3 48.6 75 22.2 W | 268 30.0 W | 276 70.3 52.1
5/3/26 - 1600 57.1 48.8 74 25.2 W | 264 33.8 WSW | 254 70.3 52.1
5/3/26 - 1550 57.0 49.2 75 24.5 W | 272 34.1 W | 272 70.3 52.1
5/3/26 - 1540 56.8 49.6 77 24.8 WNW | 282 33.5 W | 273 70.3 52.1
5/3/26 - 1530 57.4 49.8 76 25.6 WNW | 292 36.0 W | 277 70.3 52.1
5/3/26 - 1520 57.9 50.0 75 24.4 WNW | 298 32.4 WNW | 301 70.3 52.1
5/3/26 - 1510 60.1 50.3 70 21.5 WNW | 286 32.3 WNW | 288 70.3 52.1
5/3/26 - 1500 58.7 50.2 73 23.6 NW | 308 32.2 NW | 309 70.3 52.1
5/3/26 - 1450 58.5 49.9 73 25.8 NW | 314 36.5 WNW | 301 70.3 52.1
5/3/26 - 1440 59.9 49.7 69 26.4 NW | 314 35.7 NW | 318 70.3 52.1
5/3/26 - 1430 64.2 44.4 49 17.7 W | 273 30.0 WSW | 246 70.3 52.1
5/3/26 - 1420 63.5 42.9 47 18.7 WNW | 284 34.0 W | 279 70.3 52.1
5/3/26 - 1410 62.6 46.5 56 21.6 WNW | 297 33.8 NW | 319 70.3 52.1
5/3/26 - 1400 61.9 48.2 61 18.4 WNW | 294 35.9 WNW | 284 70.3 52.1
5/3/26 - 1350 61.7 50.0 66 19.4 WNW | 297 31.6 WNW | 303 70.3 52.1
5/3/26 - 1340 62.9 49.3 61 19.4 WNW | 288 30.9 WNW | 300 70.3 52.1
5/3/26 - 1330 65.9 41.7 41 20.5 SW | 224 32.8 SSW | 197 70.3 52.1
5/3/26 - 1320 66.9 43.2 42 23.2 SSW | 210 33.5 SSW | 206 70.3 52.1
5/3/26 - 1310 66.6 42.3 41 21.7 SSW | 212 35.1 SW | 222 70.3 52.1
5/3/26 - 1300 67.4 39.8 36 23.5 SSW | 199 33.4 S | 184 70.3 52.1
5/3/26 - 1250 66.5 36.6 33 26.1 SSW | 203 37.0 SW | 215 70.3 52.1
5/3/26 - 1240 67.1 34.0 29 27.7 SSW | 204 36.3 SW | 218 70.3 52.1
5/3/26 - 1230 67.7 35.3 30 27.4 SSW | 205 39.0 SW | 214 70.3 52.1
5/3/26 - 1220 66.9 34.6 30 29.3 SSW | 211 37.6 SW | 220 70.3 52.1
5/3/26 - 1210 67.8 36.4 31 28.0 SSW | 212 35.4 SSW | 206 70.3 52.1
5/3/26 - 1200 67.9 35.3 30 24.0 SSW | 206 33.9 SW | 219 70.3 52.1
5/3/26 - 1150 68.6 32.4 26 27.2 SSW | 197 35.7 S | 191 70.3 52.1
5/3/26 - 1140 69.3 32.4 25 24.8 S | 189 35.4 S | 190 70.3 52.1
5/3/26 - 1130 69.3 32.8 26 23.6 SSW | 200 36.4 SW | 214 70.3 52.1
5/3/26 - 1120 69.1 31.8 25 23.0 SSW | 208 31.2 SW | 220 70.2 52.1
5/3/26 - 1110 68.5 32.8 27 21.8 SSW | 210 31.0 SW | 221 70.0 52.1
5/3/26 - 1100 68.6 32.2 26 22.4 SSW | 199 31.4 SSW | 204 70.0 52.1
5/3/26 - 1050 69.0 32.4 26 23.1 SSW | 200 31.6 SSW | 194 70.0 52.1
5/3/26 - 1040 68.8 31.5 25 24.0 SSW | 202 32.2 S | 184 69.5 52.1
5/3/26 - 1030 68.7 31.4 25 20.9 SSW | 199 29.8 SSW | 198 69.5 52.1
5/3/26 - 1020 68.8 31.5 25 18.3 SSW | 202 29.7 SSW | 208 69.5 52.1
5/3/26 - 1010 68.9 30.8 24 18.2 SSW | 207 27.6 SSW | 208 69.5 52.1
5/3/26 - 1000 68.6 30.6 24 16.0 SSW | 211 25.4 SSW | 207 69.5 52.1
5/3/26 - 0950 68.8 30.9 24 16.1 SSW | 202 23.2 SSW | 213 69.5 52.1
5/3/26 - 0940 68.6 31.3 25 12.2 SSW | 213 21.7 SSW | 203 68.8 52.1
5/3/26 - 0930 67.7 32.4 27 2.3 SSW | 206 9.7 SSW | 196 68.5 52.1
5/3/26 - 0920 67.6 31.9 26 3.4 S | 175 9.4 SSE | 163 68.2 52.1
5/3/26 - 0910 67.2 32.8 28 3.4 S | 191 7.9 S | 180 67.8 52.1
5/3/26 - 0900 66.2 33.5 30 2.6 W | 276 7.7 NW | 304 66.8 52.1
5/3/26 - 0850 65.1 33.3 31 3.9 W | 266 7.2 W | 263 66.0 52.1
5/3/26 - 0840 63.7 36.7 37 3.3 NW | 325 5.9 N | 351 65.6 52.1
5/3/26 - 0830 61.3 41.0 47 4.1 NW | 310 6.6 WNW | 299 65.6 52.1
5/3/26 - 0820 59.4 41.2 51 4.1 NW | 306 5.7 WNW | 290 65.6 52.1
5/3/26 - 0810 57.9 41.5 54 5.3 WNW | 299 7.3 WNW | 293 65.6 52.1
5/3/26 - 0800 56.4 40.8 56 6.9 WNW | 299 9.5 WNW | 299 65.6 52.1
5/3/26 - 0750 56.1 39.1 53 9.0 WNW | 296 11.3 WNW | 284 65.6 52.1
5/3/26 - 0740 55.6 37.3 50 10.2 WNW | 297 13.1 NW | 304 65.6 52.1
5/3/26 - 0730 54.7 35.1 48 11.3 WNW | 302 13.9 WNW | 296 65.6 52.1
5/3/26 - 0720 57.4 31.2 37 10.2 NW | 304 11.6 NW | 304 65.6 52.1
5/3/26 - 0710 55.4 31.2 40 9.9 WNW | 302 11.2 WNW | 301 65.6 52.1
5/3/26 - 0700 57.5 28.7 33 9.5 WNW | 302 10.8 NW | 304 65.6 52.1
5/3/26 - 0650 55.9 29.2 36 9.8 WNW | 302 11.3 WNW | 291 65.6 52.1
5/3/26 - 0640 52.8 30.8 43 12.0 WNW | 299 14.0 WNW | 296 65.6 52.1
5/3/26 - 0630 53.2 28.9 39 11.6 WNW | 300 13.9 WNW | 297 65.6 52.5
5/3/26 - 0620 54.5 27.4 35 12.0 WNW | 300 13.7 WNW | 297 65.6 53.4
5/3/26 - 0610 55.1 28.3 35 11.9 WNW | 299 14.2 WNW | 302 65.6 53.6
5/3/26 - 0600 56.4 27.3 33 11.7 NW | 304 13.7 NW | 317 65.6 55.3
Max 69.3 50.3 98 29.3 - 39.0 - 70.3 55.3
Avg 53.4 40.8 69 19.3 - 27.1 - - -
Min 42.6 27.3 24 2.3 - 5.7 - 43.7 42.6